Regional Weather Roundup
Issued by NWS

Home | Current Version | Previous Version | Graphics & Text | Print | Product List | Glossary On
Versions: 1 2 3 4 5 6 7 8 9 10 11 12 13 14 15 16 17 18 19 20 21 22 23 24 25 26 27 28 29 30 31 32 33 34 35 36 37 38 39 40 41 42 43 44 45 46 47 48 49 50
000
ASUS43 KDTX 230101
RWRMI
MICHIGAN HOURLY REGIONAL WEATHER ROUNDUP
NATIONAL WEATHER SERVICE DETROIT/PONTIAC MI
800 PM EST WED FEB 22 2017

NOTE: "FAIR" INDICATES FEW OR NO CLOUDS BELOW 12,000 FEET WITH NO
SIGNIFICANT WEATHER AND/OR OBSTRUCTION TO VISIBILITY.

MIZ047>049-052>055-059>063-066>070-074>076-081>083-230200-
SOUTHEAST LOWER MICHIGAN

CITY           SKY/WX    TMP DP  RH WIND       PRES   REMARKS
ADRIAN         CLOUDY    57  53  86 S8        29.75F
ALMA           CLEAR     55  51  85 S15       29.64F
ANN ARBOR      CLOUDY    58  53  84 S10       29.73S
BAD AXE        CLEAR     54  50  86 S13       29.66F
CARO           CLEAR     55  51  86 S9        29.66F
DETROIT CITY   CLOUDY    57  54  89 S8        29.74S
DETROIT        CLOUDY    59  53  80 S9        29.75S
FLINT          CLEAR     57  51  80 S9        29.68F
GROSSE ILE     CLOUDY    45  44  97 S8        29.75R FOG
HILLSDALE      CLOUDY    55  52  88 S7        29.74S
HOWELL         CLEAR     56  49  77 S9        29.70S

CITY           SKY/WX    TMP DP  RH WIND       PRES   REMARKS
JACKSON        MOCLDY    59  51  75 S12       29.72S
LAMBERTVILLE   CLOUDY    61  54  78 S5        29.75F
LANSING        CLEAR     57  51  80 S10       29.68F
LAPEER         FAIR      55  50  83 S9        29.69F
MASON          MOCLDY    56  52  86 S5        29.69F
MONROE         CLOUDY    58  55  89 SE6       29.75S
PONTIAC        PTCLDY    58  52  80 S9        29.70F
PORT HOPE        N/A     57  50  77 VRB7      29.62F
PORT HURON     PTCLDY    54  52  94 S13       29.72F
TRI CITIES     CLEAR     57  52  83 S14       29.64F
MIDLAND        FAIR      57  49  76 S9G17     29.62S
TROY           CLOUDY    60  53  78 S7        29.74F
SAGINAW HB     CLEAR     55  50  82 S14       29.64F
$$
MIZ043>046-050>051-056>058-064>065-071>073-077>080-230200-
SOUTHWEST LOWER MICHIGAN

CITY           SKY/WX    TMP DP  RH WIND       PRES   REMARKS
BATTLE CREEK   CLEAR     57  53  86 S15       29.69F
BENTON HARBOR  CLEAR     59  52  77 S9        29.64F
BIG RAPIDS     PTCLDY    57  49  74 S9        29.58S
COLDWATER      PTCLDY    57  52  82 S8        29.72F
FREMONT        FAIR      57  52  83 S14G20    29.58F
HOLLAND        CLEAR     58  52  80 S14G22    29.62F
GRAND RAPIDS   MOCLDY    57  51  80 S16       29.63F
IONIA          FAIR      56  50  81 S10       29.64F
KALAMAZOO      CLEAR     57  51  80 S9        29.69F
LUDINGTON      CLOUDY    56  53  89 SW13G18   29.58S FOG
MARSHALL       MOCLDY    57  53  86 S7        29.70F
MOUNT PLEASANT CLEAR     56  51  85 S9        29.61S
MUSKEGON       MOCLDY    60  53  77 S17G26    29.58F
SOUTH HAVEN    CLEAR     57  54  87 S10       29.64F
$$
MIZ016>042-230200-
NORTHERN LOWER MICHIGAN

CITY           SKY/WX    TMP DP  RH WIND       PRES   REMARKS
ALPENA         MOCLDY    54  50  86 W3        29.61R
BEAVER ISLAND  FOG       41  41 100 CALM      29.60F VSB 1
BELLAIRE       CLOUDY    49  44  80 N7        29.60R
CADILLAC       CLOUDY    51  49  95 SW5       29.59S
CHARLEVOIX     FOG       44  44 100 CALM      29.64S VSB 1/2
FRANKFORT      CLOUDY    48  46  95 NW5       29.58S FOG
GAYLORD        CLOUDY    50  45  83 SW5       29.60S
GRAYLING       CLOUDY    51  49  92 W5        29.62R
HARBOR SPRINGS CLOUDY    43  42  98 E3        29.59F FOG
HOUGHTON LAKE  PTCLDY    53  49  86 CALM      29.60R
MANISTEE       CLOUDY    55  51  86 VRB6      29.57S
OSCODA         CLOUDY    55  50  83 SW20G26   29.58F
PELLSTON       FOG       40  39  97 SE5       29.60F VSB 1/4
ROGERS CITY    MOCLDY    40  37  91 W5        29.62S
TRAVERSE CITY  CLOUDY    57  49  74 W5        29.60R
$$
MIZ007>008-015-230200-
EASTERN UPPER MICHIGAN

CITY           SKY/WX    TMP DP  RH WIND       PRES   REMARKS
KINROSS        LGT RAIN  43  42  97 S3        29.61R FOG
MACKINAC ISLAN CLOUDY    41  41 100 W5        29.60S
NEWBERRY       RAIN      41  39  93 CALM      29.57F
S. S. MARIE    RAIN      40  38  93 N3        29.59S FOG
MUNISING         N/A     35  34  96 N7        29.57F WCI  29
$$
MIZ004>006-011>014-085-230200-
CENTRAL UPPER MICHIGAN

CITY           SKY/WX    TMP DP  RH WIND       PRES   REMARKS
MANISTIQUE     DRIZZLE   39  38  97 N6        29.55F WCI  35
ESCANABA       CLOUDY    44  38  79 NE3       29.55F
MENOMINEE      LGT RAIN  40  38  93 E7        29.57R
SAWYER-GWINN   FOG       34  34 100 N10       29.58F VSB 1   WCI  26
$$
MIZ001>003-009>011-084-230200-
WESTERN UPPER MICHIGAN

CITY           SKY/WX    TMP DP  RH WIND       PRES   REMARKS
IRON MOUNTAIN  RAIN      46  39  76 E3        29.56R
HOUGHTON       MOCLDY    37  30  75 NE7       29.59F WCI  32
COPPER HARBOR    N/A     36  33  89 N7        29.61F WCI  30
IRONWOOD       MOCLDY    37  34  89 N7        29.60R WCI  32
$$

ABBREVIATIONS USED IN REMARKS
   TC - TEMPERATURE IN CELSIUS
  WCI - WIND CHILL INDEX
   HX - HEAT INDEX
  VSB - VISIBILITY




USA.gov is the U.S. government's official web portal to all federal, state and local government web resources and services.